sat.trackr.live / text

‹ back to catalog

STARLINK-35008

NORAD 65408 · 2025-192E

PAYLOAD ACTIVE UNKNOWN

§ Identity

Operator
Country
US
Launch date
2025-08-31
Launch site
AFETR
Launch vehicle
Mass (kg)
RCS (m²)

Purposes: comms

External: N2YO · Heavens-Above · Gunter

§ Orbital elements

Epoch: 2026-05-24T23:22:45.177600Z

Period
94.11 min
Inclination
53.1597°
Eccentricity
0.0001227
Mean motion
15.30205112 rev/d
Perigee alt
474.4 km
Apogee alt
476.0 km
Semi-major
6,853.3 km
B*
3.7958e-4
RAAN
238.0204°
Arg perigee
94.2401°
Mean anomaly
265.8740°
Rev number
4,106

§ Raw data

STARLINK-350081 65408U 25192E   26144.97413400  .00010901  00000+0  37958-3 0  99922 65408  53.1597 238.0204 0001227  94.2401 265.8740 15.30205112 41069

JSON: /api/v1/satellites/65408 · /tle

For live sub-satellite position, see the globe view (requires WebGL).

§ Visibility from observer

Set your observer location to see the next 7 days of passes ≥ 10°. The values pass through the URL so the page stays shareable.

No JS? Fill the form by hand. The geolocation button needs JavaScript.